Location: Allen Fire Department Station 4
(33.1073°N, 96.6988°W)
Time: 07:44:43
(UTC+00:00)

DMSP B5D2-2 - Visible Passes

Search period start: 26 June 2022 00:00
Search period end: 06 July 2022 00:00
Orbit: 790 x 805 km, 98.3° (Epoch: 25 June)

Date Brightness Start Highest point End Pass type
(mag) Time Alt. Az. Time Alt. Az. Time Alt. Az.
27 Jun 7.3 02:02:07 10° NNW 02:05:10 16° WNW 02:08:14 10° WSW visible
29 Jun 7.3 10:43:26 10° E 10:46:20 15° ENE 10:49:13 10° NNE visible
30 Jun 7.8 02:21:58 10° WNW 02:22:31 10° WNW 02:23:04 10° WNW visible
03 Jul 7.6 10:34:45 10° E 10:36:41 12° ENE 10:38:38 10° NE visible
04 Jul 7.5 02:10:38 10° NW 02:12:53 13° WNW 02:15:09 10° W visible
